sat.trackr.live / text

‹ back to catalog

STARLINK-32644

NORAD 62151 · 2024-224N

PAYLOAD ACTIVE UNKNOWN

§ Identity

Operator
Country
US
Launch date
2024-11-30
Launch site
AFETR
Launch vehicle
Mass (kg)
RCS (m²)

Purposes: comms

External: N2YO · Heavens-Above · Gunter

§ Orbital elements

Epoch: 2026-05-25T02:27:22.959648Z

Period
94.27 min
Inclination
43.0021°
Eccentricity
0.0002891
Mean motion
15.27590342 rev/d
Perigee alt
481.0 km
Apogee alt
485.0 km
Semi-major
6,861.2 km
B*
5.2115e-4
RAAN
86.7933°
Arg perigee
282.5482°
Mean anomaly
77.5046°
Rev number
8,416

§ Raw data

STARLINK-326441 62151U 24224N   26145.10234907  .00014111  00000+0  52115-3 0  99972 62151  43.0021  86.7933 0002891 282.5482  77.5046 15.27590342 84160

JSON: /api/v1/satellites/62151 · /tle

For live sub-satellite position, see the globe view (requires WebGL).

§ Visibility from observer

Set your observer location to see the next 7 days of passes ≥ 10°. The values pass through the URL so the page stays shareable.

No JS? Fill the form by hand. The geolocation button needs JavaScript.